Torna al catalogo

STARLINK-5133

AttivoComunicazioniVLEO
NORAD 53980·PAYLOAD·🇺🇸 United States

Lanciato Oct 5, 2022 da Vandenberg Space Force Base

Loading…

Prossimi Passaggi (prossime 24 ore)

TLE

AggiornatoSource: CelesTrak SupGP

Epoca: Sep 15, 2026, 02:29 UTC

1 53980C 22125S   26258.10395833  .00689370  00000+0  23636-1 0  2583
2 53980  53.1607  86.7528 0001145  84.6087  67.2490 15.29292616    11

Traccia STARLINK-5133 in tempo reale con AllMySat

Download on the App Store